This is the latest recevied weather packets stored in our database for station/object KC7RJK-2. If no packets are shown the sender has not sent any weather packets the latest 10 day(s).
| Time | Temp. | Humidity | Pressure | Rain* | Wind** | Luminosity | Snow |
|---|---|---|---|---|---|---|---|
| 1777349408 | 11.11° C | 80% | 1020 hPa | 0 mm | - | - | - |
| 1777348812 | 11.11° C | 80% | 1019.8 hPa | 0 mm | - | - | - |
| 1777348210 | 11.67° C | 79% | 1019.6 hPa | 0 mm | - | - | - |
| 1777347610 | 11.67° C | 78% | 1019.4 hPa | 0 mm | - | - | - |
| 1777347011 | 12.22° C | 77% | 1019.3 hPa | 0 mm | - | - | - |
| 1777346410 | 12.78° C | 75% | 1019.2 hPa | 0 mm | - | - | - |
| 1777345809 | 12.78° C | 74% | 1019.1 hPa | 0 mm | - | - | - |
| 1777345209 | 13.33° C | 73% | 1019 hPa | 0 mm | - | - | - |
| 1777344609 | 13.33° C | 72% | 1019 hPa | 0 mm | - | - | - |
| 1777344009 | 13.89° C | 70% | 1018.9 hPa | 0 mm | - | - | - |
| 1777343409 | 14.44° C | 69% | 1018.9 hPa | 0 mm | - | - | - |
| 1777342810 | 14.44° C | 68% | 1018.9 hPa | 0 mm | - | - | - |
| 1777342210 | 15° C | 66% | 1018.8 hPa | 0 mm | - | - | - |
| 1777341611 | 15.56° C | 65% | 1018.8 hPa | 0 mm | - | - | - |
| 1777341009 | 15.56° C | 65% | 1018.9 hPa | 0 mm | - | - | - |
| 1777340410 | 15.56° C | 66% | 1018.9 hPa | 0 mm | - | - | - |
| 1777339809 | 16.11° C | 63% | 1018.9 hPa | 0 mm | - | - | - |
| 1777339209 | 16.67° C | 62% | 1018.9 hPa | 0 mm | - | - | - |
| 1777338609 | 17.22° C | 60% | 1018.8 hPa | 0 mm | - | - | - |
| 1777338009 | 17.22° C | 57% | 1018.8 hPa | 0 mm | - | - | - |
| 1777337410 | 17.78° C | 55% | 1018.7 hPa | 0 mm | - | - | - |
| 1777336810 | 17.78° C | 55% | 1018.6 hPa | 0 mm | - | - | - |
| 1777336211 | 17.22° C | 56% | 1018.6 hPa | 0 mm | - | - | - |
| 1777335610 | 17.22° C | 56% | 1018.6 hPa | 0 mm | - | - | - |
| 1777335009 | 17.22° C | 55% | 1018.6 hPa | 0 mm | - | - | - |
* Rain latest hour (hover to see other rain measurements)
** Current wind speed in m/s (hover to see current wind gust speed)